Regional Weather Roundup
Issued by NWS

Home | Current Version | Previous Version | Graphics & Text | Print | Product List | Glossary On
Versions: 1 2 3 4 5 6 7 8 9 10 11 12 13 14 15 16 17 18 19 20 21 22 23 24 25 26 27 28 29 30 31 32 33 34 35 36 37 38 39 40 41 42 43 44 45 46 47 48 49 50
000
ASUS43 KDTX 260801
RWRMI
MICHIGAN HOURLY REGIONAL WEATHER ROUNDUP
NATIONAL WEATHER SERVICE DETROIT/PONTIAC MI
400 AM EDT MON JUN 26 2017

NOTE: "FAIR" INDICATES FEW OR NO CLOUDS BELOW 12,000 FEET WITH NO
SIGNIFICANT WEATHER AND/OR OBSTRUCTION TO VISIBILITY.

MIZ047>049-052>055-059>063-066>070-074>076-081>083-260900-
SOUTHEAST LOWER MICHIGAN

CITY           SKY/WX    TMP DP  RH WIND       PRES   REMARKS
ADRIAN         PTCLDY    54  47  77 W3        30.05S
ALMA           CLOUDY    55  52  88 W12       29.99F
ANN ARBOR      PTCLDY    46  45  96 SW3       30.02F
BAD AXE        CLOUDY    56  55  95 SW5       29.97S
CARO           MOCLDY    51  51  99 SW5       29.97S
DETROIT CITY   CLEAR     57  47  69 W6        30.01S
DETROIT        MOCLDY    56  47  71 W6        30.02F
FLINT          PTCLDY    53  49  86 SW6       30.00S
GROSSE ILE     CLEAR     58  47  67 W5        30.01S
HILLSDALE      MOCLDY    54  46  76 W3        30.04F
HOWELL         CLEAR     53  47  79 SW5       30.02S

CITY           SKY/WX    TMP DP  RH WIND       PRES   REMARKS
JACKSON        CLEAR     56  49  77 W7        30.03F
LAMBERTVILLE   PTCLDY    57  48  72 CALM      30.03S
LANSING        PTCLDY    56  49  77 SW9       30.02S
LAPEER         FAIR      55  50  82 CALM      30.00S
MASON          CLEAR     55  50  84 SW3       30.03S
MONROE         CLEAR     55  47  73 CALM      30.02F
MT. CLEMENS    CLEAR     56  50  79 SW7       29.98F
PONTIAC        CLEAR     54  49  83 W6        30.00S
PORT HOPE        N/A     56  54  93 SW3       29.94F
PORT HURON     CLOUDY    54  50  87 CALM      29.99S
TRI CITIES     CLOUDY    57  54  89 SW8       29.99S
MIDLAND        MOCLDY    55  52  88 SW5       29.97F
TROY           CLEAR     55  47  74 SW5       30.03S
SAGINAW HB     MOCLDY    55  50  82 SW7       29.98S
$$
MIZ043>046-050>051-056>058-064>065-071>073-077>080-260900-
SOUTHWEST LOWER MICHIGAN

CITY           SKY/WX    TMP DP  RH WIND       PRES   REMARKS
BATTLE CREEK   PTCLDY    55  52  89 W8        30.05S
BENTON HARBOR  MOCLDY    61  51  70 W13G20    30.06S
BIG RAPIDS     CLOUDY    55  51  88 W7        29.98F
COLDWATER      PTCLDY    56  51  84 W6        30.04F
FREMONT        FAIR      54  54 100 W7        30.00F
HOLLAND        CLOUDY    60  53  77 W8        30.04F
GRAND RAPIDS   PTCLDY    56  53  90 W7        30.02S
IONIA          FAIR      55  51  88 W8        30.01S
KALAMAZOO      PTCLDY    55  50  83 CALM      30.05F
LUDINGTON      CLOUDY    55  50  83 W9        29.99F
MARSHALL       PTCLDY    53  51  94 SW6       30.04S
MOUNT PLEASANT PTCLDY    54  51  89 W5        29.98S
MUSKEGON       PTCLDY    59  52  77 W15G23    30.02S
SOUTH HAVEN    PTCLDY    60  54  78 NW9       30.05S
$$
MIZ016>042-260900-
NORTHERN LOWER MICHIGAN

CITY           SKY/WX    TMP DP  RH WIND       PRES   REMARKS
ALPENA         MOCLDY    55  55 100 CALM      29.95S
BEAVER ISLAND  CLOUDY    55  54  99 CALM      29.93F
BELLAIRE       CLOUDY    55  53  92 CALM      29.94F
CADILLAC       CLOUDY    54  51  92 W6        29.96F
CHARLEVOIX     LGT RAIN  56  56 100 CALM      29.96F
FRANKFORT      CLOUDY    57  52  84 W8        29.95S
GAYLORD        PTCLDY    51  47  86 CALM      29.95S
GRAYLING       CLOUDY    53  51  94 CALM      29.96F
HARBOR SPRINGS CLOUDY    56  55  97 CALM      29.93F
HOUGHTON LAKE  CLOUDY    56  51  84 W7        29.96F
MANISTEE       CLOUDY    56  52  86 W13       29.97F
OSCODA         CLOUDY    54  53  95 CALM      29.94F
PELLSTON       CLOUDY    54  51  90 CALM      29.94S
ROGERS CITY    RAIN      55  54  95 CALM      29.95F
TRAVERSE CITY  CLOUDY    57  53  86 CALM      29.93F
$$
MIZ007>008-015-260900-
EASTERN UPPER MICHIGAN

CITY           SKY/WX    TMP DP  RH WIND       PRES   REMARKS
KINROSS        CLOUDY    52  52 100 NE6       29.94F FOG
MACKINAC ISLAN LGT RAIN  55  55 100 CALM      29.93S
NEWBERRY       CLOUDY    48  47  97 CALM      29.94S
S. S. MARIE    CLOUDY    54  51  90 CALM      29.94S
MUNISING         N/A     51  50  96 NE15      29.95F
$$
MIZ004>006-011>014-085-260900-
CENTRAL UPPER MICHIGAN

CITY           SKY/WX    TMP DP  RH WIND       PRES   REMARKS
MANISTIQUE     RAIN      50  47  89 N8        29.95S
ESCANABA       CLOUDY    53  52  96 W5        29.95F
MENOMINEE      CLEAR     49  47  93 CALM      29.99S
SAWYER-GWINN   DRIZZLE   50  49  97 N6        29.95F
$$
MIZ001>003-009>011-084-260900-
WESTERN UPPER MICHIGAN

CITY           SKY/WX    TMP DP  RH WIND       PRES   REMARKS
IRON MOUNTAIN  MOCLDY    49  45  86 NW6       29.96S
HOUGHTON       LGT RAIN  48  45  89 NW7       29.96F
COPPER HARBOR    N/A     50  49  96 N7        29.97F
IRONWOOD       LGT RAIN  46  45  96 NW12      30.04S FOG
$$

ABBREVIATIONS USED IN REMARKS
   TC - TEMPERATURE IN CELSIUS
  WCI - WIND CHILL INDEX
   HX - HEAT INDEX
  VSB - VISIBILITY




USA.gov is the U.S. government's official web portal to all federal, state and local government web resources and services.